Weather History for Hanford, CA

Change the Weather History Date:

Monday, March 4, 2013

  Actual Average Record
Temperature  
Mean Temperature 59 °F 54 °F  
Max Temperature 72 °F 66 °F 77 °F (2012)
Min Temperature 45 °F 42 °F 31 °F (2006)
Degree Days  
Heating Degree Days 6    
Month to date heating degree days 22  
Since 1 July heating degree days 2083  
Cooling Degree Days 0    
Month to date cooling degree days 0  
Year to date cooling degree days 0  
Growing Degree Days 8 (Base 50)    
Moisture  
Dew Point 43 °F    
Average Humidity 63    
Maximum Humidity 92    
Minimum Humidity 34    
Precipitation  
Precipitation 0.00 in 0.08 in 0.74 in (2005)
Month to date precipitation T 0.33  
Year to date precipitation 0.67 4.10  
Since 1 July precipitation 2.67 7.44  
Snow  
Snow 0.00 in - - ()
Month to date snowfall 0.0  
Since 1 July snowfall 0.0  
Snow Depth 0.00 in    
Sea Level Pressure  
Sea Level Pressure 30.07 in    
Wind  
Wind Speed 7 mph (NNW)    
Max Wind Speed 10 mph    
Max Gust Speed -    
Visibility 10 miles    
Events      
T = Trace of Precipitation, MM = Missing Value Source: NWS Daily Summary

Daily Weather History Graph

Daily Weather History Graph

Search for Another Location

Airport:

Trip Planner

Search our weather history database for the weather conditions in past years. The results will help you decide how hot, cold, wet, or windy it might be!

Date:

Astronomy

Mar. 04, 2013 Rise Set
Actual Time 6:24 AM PST 5:56 PM PST
Civil Twilight 5:58 AM PST 6:22 PM PST
Nautical Twilight 5:28 AM PST 6:51 PM PST
Astronomical Twilight 4:59 AM PST 7:21 PM PST
Moon 12:32 AM PST (3/4) 10:50 AM PST (3/4)
Length of Visible Light 12h 23m
Length of Day
11h 31m
Waning Gibbous, 51% of the Moon is Illuminated
Mar 4
Waning Gibbous
Mar 4
Last Quarter
Mar 11
New
Mar 19
First Quarter
Mar 27
Full

Hourly Weather History & Observations

Time (PST) Temp. Windchill Dew Point Humidity Pressure Visibility Wind Dir Wind Speed Gust Speed Precip Events Conditions
12:53 AM 55.0 °F - 43.0 °F 64% 30.06 in 10.0 mi NW 10.4 mph - N/A   Overcast
1:53 AM 53.1 °F - 44.1 °F 71% 30.06 in 10.0 mi NW 8.1 mph - N/A   Partly Cloudy
2:53 AM 51.1 °F - 44.1 °F 77% 30.06 in 10.0 mi NW 8.1 mph - N/A   Clear
3:53 AM 50.0 °F - 43.0 °F 77% 30.06 in 10.0 mi WNW 9.2 mph - N/A   Clear
4:53 AM 50.0 °F - 43.0 °F 77% 30.08 in 10.0 mi NW 8.1 mph - N/A   Clear
5:53 AM 46.9 °F - 43.0 °F 86% 30.09 in 10.0 mi NNW 6.9 mph - N/A   Clear
6:53 AM 45.0 °F 41.8 °F 42.1 °F 90% 30.10 in 9.0 mi NNW 5.8 mph - N/A   Clear
7:53 AM 50.0 °F - 43.0 °F 77% 30.11 in 10.0 mi NW 8.1 mph - N/A   Clear
8:53 AM 55.9 °F - 45.0 °F 67% 30.14 in 10.0 mi Calm Calm - N/A   Clear
9:53 AM 60.1 °F - 43.0 °F 53% 30.14 in 10.0 mi North 4.6 mph - N/A   Clear
10:53 AM 62.1 °F - 44.1 °F 52% 30.14 in 10.0 mi Variable 3.5 mph - N/A   Clear
11:53 AM 66.0 °F - 45.0 °F 47% 30.12 in 10.0 mi NE 5.8 mph - N/A   Clear
12:53 PM 69.1 °F - 45.0 °F 42% 30.09 in 10.0 mi Variable 4.6 mph - N/A   Clear
1:53 PM 70.0 °F - 42.1 °F 36% 30.06 in 10.0 mi NNW 3.5 mph - N/A   Clear
2:53 PM 72.0 °F - 42.1 °F 34% 30.06 in 10.0 mi Variable 4.6 mph - N/A   Clear
3:53 PM 71.1 °F - 41.0 °F 34% 30.05 in 10.0 mi NW 5.8 mph - N/A   Clear
4:53 PM 71.1 °F - 41.0 °F 34% 30.04 in 10.0 mi ENE 3.5 mph - N/A   Clear
5:53 PM 64.9 °F - 42.1 °F 43% 30.03 in 10.0 mi ESE 3.5 mph - N/A   Clear
6:53 PM 55.9 °F - 44.1 °F 64% 30.02 in 10.0 mi South 3.5 mph - N/A   Clear
7:53 PM 55.0 °F - 44.1 °F 67% 30.03 in 10.0 mi WSW 5.8 mph - N/A   Clear
8:53 PM 55.0 °F - 44.1 °F 67% 30.05 in 10.0 mi Calm Calm - N/A   Clear
9:53 PM 50.0 °F - 43.0 °F 77% 30.06 in 10.0 mi ENE 4.6 mph - N/A   Clear
11:53 PM 48.9 °F - 43.0 °F 80% 30.06 in 10.0 mi Calm Calm - N/A   Clear